{"data":{"norad_id":49400,"intl_designator":"2021-102F","name":"HIBARI","alt_names":[],"object_type":"PAYLOAD","status":"ACTIVE","operator":null,"country":"JPN","launch_date":"2021-11-09","launch_site_code":"KSCUT","launch_vehicle":null,"mission":null,"orbit_class":"UNKNOWN","rcs_meters":null,"size_class":null,"mass_kg":null,"dimensions":null,"purposes":[],"wikipedia_slug":null,"has_3d_model":false,"image_url":null,"decayed_at":null,"tle_current":{"epoch":"2026-05-25T01:43:48.931968Z","epoch_age_seconds":76130,"freshness":"FRESH","line1":"1 49400U 21102F   26145.07209412  .00009842  00000+0  32866-3 0  9996","line2":"2 49400  97.3257 191.2457 0009742 283.3371  76.6784 15.31191270250656","mean_motion":15.3119127,"eccentricity":0.0009742,"inclination_deg":97.3257,"raan_deg":191.2457,"arg_perigee_deg":283.3371,"mean_anomaly_deg":76.6784,"bstar":0.00032866,"rev_number":25065,"period_min":94.044423333213,"perigee_km":465.58325899164,"apogee_km":478.93056649123,"semimajor_km":6850.3939127414,"source":"CELESTRAK","updated_at":"2026-05-25T13:37:57.195004Z"}}}